[[{"header":{"parameterUnit":"m.s-1","parameterCategory":1,"la1":30.2991,"la2":30.254,"lo1":-89.0895,"lo2":-89.0444,"dy":0.0017,"dx":0.0017,"nx":28,"ny":28,"refTime":"2023-06-18T21:00:00:Z","depth":0,"parameterNumber":2,"parameterNumberName":"U-component_of_WINDS"},"data":[0,0,0,0,0,0,0,0,0,0,0,0,0,0,0,0,0,0,0,0,0,0,0,0,0,0,0,0,0,0,0,0,0,0,0,0,0,0,0,0,0,0,0,0,0,0,0,0,0,0,0,0,0,0,0,0,0,0,4.7467,4.7469,0,4.7591,4.7592,4.7594,4.7552,4.7549,4.7546,4.7544,4.7674,4.768,4.7686,0,0,0,0,0,0,0,0,0,0,0,0,0,4.7199,4.7204,4.7467,4.7469,4.747,4.7591,4.7592,4.7594,4.7552,4.7549,4.7546,4.7543,4.7672,4.7679,4.7686,0,0,0,0,0,0,0,0,0,0,0,0,0,4.7319,4.7206,4.7467,4.7464,4.7465,4.759,4.7592,4.7594,4.7553,4.7549,4.7545,4.7541,4.767,4.7678,4.7687,4.7824,0,0,4.7715,4.7719,0,0,0,0,0,0,0,0,4.7312,4.7329,4.7463,4.7464,4.7466,4.7552,4.7546,4.7672,4.7554,4.752,4.7544,4.7539,4.7637,4.7648,4.768,4.783,4.7836,4.7716,4.7721,4.7725,4.7727,0,0,0,0,0,0,0,4.7304,4.7323,4.7516,4.7465,4.7467,4.7458,4.747,4.7569,4.76,4.7522,4.752,4.7535,4.7637,4.7672,4.7683,4.7838,4.7715,4.7723,4.7729,4.7732,4.8108,4.8113,0,0,0,0,0,0,4.7294,4.7316,4.7512,4.752,4.7377,4.7466,4.748,4.7528,4.7598,4.7605,4.7538,4.7532,4.7659,4.7673,4.7688,4.7854,4.7725,4.7733,4.7738,4.8104,4.8109,4.8114,0,0,0,0,0,0,4.7289,4.7312,4.7507,4.7418,4.7442,4.7475,4.753,4.7533,4.7568,4.761,4.7616,4.7568,4.7656,4.7675,4.7791,4.7857,4.7737,4.7746,4.8098,4.8105,4.8112,4.8186,0,0,0,0,0,0,4.7281,4.731,4.7362,4.7419,4.7447,4.7607,4.7534,4.7538,4.7583,4.7577,4.764,4.7646,4.7654,4.7778,4.78,4.7868,4.7753,4.8092,4.8101,4.811,4.8178,4.8195,4.8209,0,0,0,0,0,4.7272,4.7378,4.7364,4.7388,4.7511,4.7611,4.7627,4.7633,4.7588,4.7641,4.7669,4.7644,4.7847,4.779,4.7814,4.7886,4.8088,4.8099,4.8109,4.8171,4.8191,4.8209,0,0,0,0,0,0,4.7329,4.7385,4.7371,4.7499,4.755,4.7604,4.767,4.7654,4.772,4.7712,4.7717,4.7732,4.7851,4.788,4.7816,4.8023,4.7961,4.7977,4.8,4.802,4.8035,4.8026,4.776,0,0,0,0,0,4.7356,4.7431,4.7477,4.7586,4.7612,4.7637,4.7681,4.7681,4.7735,4.7757,4.7792,4.7847,4.7923,4.7973,4.8045,4.8182,4.8196,4.8243,4.8259,4.8272,4.8285,4.8361,4.8383,4.8148,4.8148,4.8148,0,0,4.7413,4.7454,4.7501,4.7598,4.7638,4.7717,4.7656,4.7741,4.7801,4.777,4.7881,4.791,4.7971,4.8098,4.8156,4.8126,4.8353,4.8285,4.8295,4.8302,4.8374,4.8396,4.8416,4.8155,4.8154,4.8153,0,0,4.7558,4.7596,4.7691,4.7732,4.7793,4.7809,4.7832,4.7888,4.7906,4.8017,4.7996,4.8068,4.8198,4.8243,4.8283,4.8446,4.8427,4.847,4.8552,4.8626,4.8644,4.8661,4.872,4.8741,4.8483,4.8484,4.8484,0,4.7622,4.7739,4.7742,4.783,4.7874,4.7849,4.7946,4.7987,4.8069,4.8101,4.8066,4.8229,4.8269,4.8407,4.8447,4.848,4.8507,4.8463,4.8641,4.8658,4.8673,4.873,4.8752,4.8488,4.8488,4.8487,4.8487,0,4.7815,4.7897,4.7967,4.8046,4.8098,4.819,4.8208,4.8261,4.8257,4.8277,4.8392,4.8438,4.852,4.8553,4.855,4.8691,4.8671,4.8639,4.8576,4.87,4.8754,4.8775,4.8495,4.8494,4.8492,4.8491,0,0,4.7999,4.8079,4.8105,4.8141,4.8207,4.8271,4.8363,4.8441,4.8487,4.8545,4.8623,4.8734,4.8705,4.875,4.8753,4.8818,4.8946,4.8778,4.8779,4.8808,4.9105,4.9129,4.9154,4.8933,4.8937,4.894,4.91,0,4.815,4.831,4.8316,4.8463,4.8539,4.8517,4.8598,4.8648,4.8669,4.8738,4.8763,4.8842,4.8797,4.8824,4.8888,4.8916,4.9005,4.8905,4.9007,4.9011,4.8993,4.9182,4.9208,4.9356,4.9121,4.9125,4.9127,0,4.8347,4.8411,4.8565,4.8621,4.8653,4.8725,4.8799,4.8864,4.8921,4.8933,4.8984,4.8977,4.9073,4.9007,4.914,4.9072,4.9114,4.9135,4.9141,4.9151,4.9077,4.9198,4.9404,4.9426,4.916,4.9158,4.9155,0,4.8467,4.8591,4.87,4.8731,4.8799,4.885,4.8881,4.8934,4.8981,4.9046,4.9077,4.9153,4.9194,4.9254,4.9268,4.9219,4.9401,4.9337,4.9415,4.9415,4.9454,4.9452,4.967,4.9481,4.9481,4.948,4.948,0,4.8635,4.8731,4.8754,4.8821,4.8928,4.8935,4.9041,4.9068,4.9116,4.9188,4.9175,4.9244,4.9258,4.933,4.9342,4.9451,4.947,4.9483,4.9485,4.9485,4.9483,4.9513,4.9503,4.9486,4.9485,4.9484,4.9483,0,4.8787,4.8807,4.8924,4.8978,4.8994,4.9071,4.9118,4.9183,4.9203,4.9296,4.9318,4.9351,4.9435,4.9455,4.9556,4.9564,4.9694,4.9686,4.9674,4.9674,4.9751,4.9744,4.9997,5.0031,4.9818,4.982,4.9822,0,4.8894,4.8966,4.9029,4.9076,4.9109,4.9186,4.9234,4.9244,4.9295,4.9366,4.9423,4.9506,4.9573,4.9709,4.9743,4.9821,4.9815,4.9898,4.9826,4.9824,4.9817,4.9813,4.982,4.9912,4.9914,4.9916,4.9917,0,4.9081,4.9087,4.9156,4.923,4.9288,4.9346,4.9402,4.9442,4.946,4.9518,4.9604,4.9656,4.9759,4.9842,4.992,4.9953,4.994,4.994,4.9962,4.9962,4.9953,4.996,4.9712,4.9934,4.9932,4.9931,4.993,4.993,4.9214,4.9278,4.9332,4.941,4.9453,4.9506,4.957,4.9598,4.9669,4.9753,4.9755,4.9849,4.9906,5.0009,5.0047,5.0122,5.0096,5.0129,5.0137,5.0145,5.0152,4.9941,5.0136,5.0136,5.0135,5.0135,5.0135,0,4.9401,4.9435,4.9506,4.9585,4.9647,4.9627,4.9688,4.9742,4.9824,4.9877,4.9943,5.0043,5.0123,5.0163,5.0244,5.0296,5.0292,5.0317,5.0313,5.0322,5.017,5.0143,5.0319,5.0319,5.0319,5.0319,5.0319,5.0319,4.9505,4.9613,4.9626,4.9755,4.9789,4.988,4.9917,4.9966,5.0008,5.012,5.0186,5.0211,5.026,5.0344,5.0418,5.0427,5.0458,5.0487,5.0494,5.0351,5.0332,5.0314,5.0289,5.0493,5.0493,5.0639,5.0641,5.0642]},{"header":{"parameterUnit":"m.s-1","parameterCategory":1,"la1":30.2991,"la2":30.254,"lo1":-89.0895,"lo2":-89.0444,"dy":0.0017,"dx":0.0017,"nx":28,"ny":28,"refTime":"2023-06-18T21:00:00:Z","depth":0,"parameterNumber":3,"parameterNumberName":"V-component_of_WINDS"},"data":[0,0,0,0,0,0,0,0,0,0,0,0,0,0,0,0,0,0,0,0,0,0,0,0,0,0,0,0,0,0,0,0,0,0,0,0,0,0,0,0,0,0,0,0,0,0,0,0,0,0,0,0,0,0,0,0,0,0,0.8686,0.8686,0,0.8684,0.8684,0.8684,0.8665,0.8664,0.8664,0.8663,0.8661,0.8662,0.8662,0,0,0,0,0,0,0,0,0,0,0,0,0,0.8673,0.8673,0.8686,0.8686,0.8686,0.8684,0.8684,0.8684,0.8665,0.8664,0.8664,0.8663,0.8661,0.8662,0.8662,0,0,0,0,0,0,0,0,0,0,0,0,0,0.8676,0.8673,0.8686,0.8676,0.8675,0.8684,0.8684,0.8684,0.8665,0.8664,0.8664,0.8663,0.8661,0.8662,0.8662,0.8681,0,0,0.8664,0.8664,0,0,0,0,0,0,0,0,0.8676,0.8676,0.8678,0.8677,0.8676,0.8674,0.8679,0.8683,0.8665,0.8669,0.8663,0.8663,0.8666,0.8666,0.8668,0.868,0.868,0.8664,0.8665,0.8665,0.8665,0,0,0,0,0,0,0,0.8675,0.8676,0.8685,0.8678,0.8677,0.8672,0.8671,0.868,0.8672,0.8669,0.8667,0.8667,0.8666,0.8667,0.8667,0.868,0.8664,0.8665,0.8665,0.8665,0.8708,0.8709,0,0,0,0,0,0,0.8677,0.8676,0.8685,0.8685,0.8674,0.8673,0.8672,0.8675,0.8672,0.867,0.8668,0.8666,0.8666,0.8667,0.8667,0.8688,0.8665,0.8665,0.8666,0.8707,0.8708,0.8709,0,0,0,0,0,0,0.8676,0.8678,0.8685,0.868,0.8681,0.8674,0.8677,0.8676,0.8677,0.8671,0.8669,0.8671,0.8666,0.8666,0.8677,0.8688,0.8666,0.8666,0.8706,0.8707,0.8708,0.873,0,0,0,0,0,0,0.8676,0.8678,0.8684,0.8681,0.8681,0.8696,0.8678,0.8676,0.8678,0.8676,0.8673,0.8672,0.8665,0.8677,0.8678,0.8688,0.8667,0.8705,0.8707,0.8708,0.8728,0.8732,0.8735,0,0,0,0,0,0.8676,0.8691,0.8685,0.8686,0.869,0.8696,0.8697,0.8689,0.8679,0.8686,0.8682,0.8672,0.8686,0.8678,0.8679,0.869,0.8704,0.8706,0.8708,0.8727,0.8731,0.8735,0,0,0,0,0,0,0.8696,0.869,0.8684,0.8698,0.8698,0.8693,0.8701,0.8693,0.8696,0.8694,0.8684,0.8683,0.8696,0.8694,0.8684,0.8707,0.8694,0.8696,0.8708,0.8712,0.8715,0.8715,0.8667,0,0,0,0,0,0.8702,0.8708,0.8702,0.8715,0.8716,0.8709,0.8711,0.8705,0.8704,0.8704,0.8701,0.8701,0.8705,0.8708,0.8712,0.8728,0.8727,0.8736,0.8739,0.8742,0.8744,0.8752,0.8756,0.8714,0.8714,0.8714,0,0,0.8715,0.8712,0.8717,0.8719,0.8719,0.8725,0.8709,0.8716,0.872,0.8705,0.8715,0.8713,0.8712,0.8726,0.8732,0.8725,0.8755,0.8744,0.8746,0.8747,0.8754,0.8758,0.8761,0.8716,0.8715,0.8715,0,0,0.8741,0.874,0.875,0.875,0.8749,0.8744,0.8747,0.8743,0.8741,0.8751,0.874,0.8745,0.8753,0.8753,0.8754,0.878,0.8771,0.8782,0.8798,0.8806,0.8809,0.8812,0.8821,0.8825,0.8783,0.8784,0.8784,0,0.8757,0.8766,0.8757,0.8765,0.8766,0.8753,0.8764,0.8764,0.8764,0.8765,0.8758,0.8767,0.8766,0.8779,0.8785,0.8787,0.8789,0.8782,0.881,0.8812,0.8815,0.8823,0.8827,0.8785,0.8785,0.8784,0.8784,0,0.8785,0.8791,0.88,0.8801,0.8803,0.8813,0.8805,0.8809,0.8803,0.8799,0.8809,0.8807,0.881,0.8812,0.8806,0.8825,0.882,0.8811,0.8798,0.882,0.8828,0.8831,0.8787,0.8786,0.8786,0.8785,0,0,0.8824,0.8819,0.8823,0.8823,0.8821,0.8825,0.8834,0.8837,0.884,0.8841,0.8848,0.8855,0.8847,0.8848,0.8841,0.8849,0.8869,0.8839,0.8838,0.8844,0.8889,0.8896,0.89,0.8864,0.8864,0.8865,0.8889,0,0.8848,0.8863,0.8855,0.8871,0.8877,0.8864,0.8872,0.8871,0.8868,0.8872,0.8868,0.8873,0.8862,0.8863,0.8869,0.8865,0.8878,0.8864,0.887,0.887,0.887,0.8904,0.8911,0.8934,0.8892,0.8893,0.8893,0,0.8879,0.8881,0.8898,0.8894,0.8896,0.8903,0.8905,0.891,0.8909,0.8906,0.8907,0.8899,0.8908,0.8895,0.8906,0.8896,0.8898,0.8897,0.8897,0.8897,0.8883,0.8904,0.8941,0.8944,0.8898,0.8897,0.8897,0,0.8905,0.8912,0.8923,0.8923,0.892,0.8925,0.8924,0.8922,0.8925,0.8927,0.8928,0.8931,0.8932,0.8935,0.8928,0.8919,0.894,0.8926,0.8937,0.8937,0.8942,0.8942,0.8979,0.8944,0.8944,0.8944,0.8944,0,0.8934,0.8944,0.8934,0.8941,0.8952,0.8943,0.8954,0.8952,0.8951,0.8956,0.8946,0.8952,0.8942,0.8947,0.8941,0.8951,0.8952,0.895,0.8948,0.8951,0.8951,0.8952,0.895,0.8945,0.8945,0.8944,0.8944,0,0.8965,0.8959,0.8969,0.8965,0.8964,0.8973,0.8969,0.8975,0.8971,0.8978,0.8979,0.8973,0.8978,0.8971,0.8976,0.8972,0.8986,0.8982,0.8986,0.8985,0.8996,0.8995,0.9035,0.904,0.9002,0.9002,0.9003,0,0.8983,0.899,0.8987,0.899,0.899,0.8995,0.8997,0.8989,0.8992,0.8992,0.8997,0.9001,0.9004,0.9012,0.9008,0.9011,0.9007,0.9021,0.9008,0.901,0.9007,0.9007,0.9007,0.9024,0.9024,0.9025,0.9025,0,0.9016,0.9013,0.9016,0.9019,0.9022,0.9023,0.9024,0.9027,0.9019,0.9022,0.9027,0.9029,0.9034,0.9038,0.904,0.9039,0.903,0.9029,0.9032,0.9034,0.9036,0.9035,0.8993,0.9028,0.9028,0.9028,0.9027,0.9027,0.9041,0.9047,0.9046,0.905,0.905,0.9051,0.9056,0.9053,0.9056,0.9059,0.9054,0.906,0.906,0.9061,0.9061,0.9066,0.906,0.9064,0.9065,0.9066,0.9067,0.9036,0.9066,0.9066,0.9066,0.9066,0.9066,0,0.9073,0.9071,0.9076,0.9077,0.9081,0.9073,0.9073,0.9077,0.9082,0.9082,0.9085,0.909,0.9094,0.9091,0.9094,0.9098,0.9094,0.9099,0.9099,0.9098,0.9073,0.907,0.9102,0.9102,0.9102,0.9102,0.9102,0.9102,0.909,0.91,0.9096,0.9106,0.9104,0.911,0.9111,0.9112,0.9112,0.9119,0.9122,0.9119,0.9118,0.9121,0.9124,0.9123,0.9124,0.913,0.9128,0.9104,0.91,0.9097,0.9094,0.9131,0.9131,0.9153,0.9153,0.9153]}]]